Location: Arleux
(50.3632°N, 2.8721°E)
Time: 11:05:49
(UTC+00:00)

Cosmos 2227 Rocket - Pass Details

Date: 15 December 2019
Orbit: 840 x 844 km, 71.0° (Epoch: 26 January)

Event Time Altitude Azimuth Distance (km) Brightness Sun altitude
Exits shadow 04:15:25 14° 7° (N) 2,181 4.4 -31.6°
Drops below altitude 10° 04:16:27 10° 14° (NNE) 2,475 4.8 -31.4°
Sets 04:19:20 0° 27° (NNE) 3,413 5.7 -30.9°
